Location: Dittelbrunn
(50.0738°N, 10.2196°E)
Time: 13:33:25
(UTC+00:00)

Meteor 2-19 Rocket - Pass Details

Date: 18 September 2020
Orbit: 935 x 959 km, 82.5° (Epoch: 25 October)

Event Time Altitude Azimuth Distance (km) Brightness Sun altitude
Rises 19:56:29 0° 352° (N) 3,642 8.1 -23.6°
Reaches altitude 10° 19:59:04 10° 356° (N) 2,689 7.3 -24.0°
Maximum altitude 20:05:06 56° 75° (ENE) 1,118 4.5 -24.7°
Enters shadow 20:05:39 54° 96° (E) 1,140 4.5 -24.8°
